Regional Weather Roundup
Issued by NWS

Home | Current Version | Previous Version | Text Only | Print | Product List | Glossary On
Versions: 1 2 3 4 5 6 7 8 9 10 11 12 13 14 15 16 17 18 19 20 21 22 23 24 25 26 27 28 29 30 31 32 33 34 35 36 37 38 39 40 41 42 43 44 45 46 47 48 49 50
000
ASHW40 PHFO 262143
RWRHI

WEATHER ROUNDUP FOR HAWAII
NATIONAL WEATHER SERVICE HONOLULU HI
1100 AM HST WED NOV 26 2014

THIS IS AN AUTOMATED REPORT THAT HAS NOT BEEN QUALITY CONTROLLED.

NOTE..."FAIR" INDICATES FEW OR NO CLOUDS BELOW 12,000 FEET WITH NO
SIGNIFICANT WEATHER AND/OR OBSTRUCTIONS TO VISIBILITY.

* - THESE SITES REPORT LIMITED FIELDS

HIZ001>004-262200-
KAUAI-NIIHAU-

CITY           SKY/WX    TMP DP  RH WIND       PRES   REMARKS
LIHUE APT      MOSUNNY   75  61  61 N20       30.13F
PORT ALLEN*      N/A     77 N/A N/A E17G25      N/A
POIPU*           N/A     79 N/A N/A NE8G25      N/A
PRINCEVILLE*     N/A     72 N/A N/A MISG        N/A
KOKOLE POINT*  NOT AVBL
MOLOAA DAIRY*  NOT AVBL
WAIMEA HTS*      N/A     82  54  36 SW8         N/A
PUU OPAE*        N/A     70  55  60 S1G7        N/A
PUU LUA*       NOT AVBL
MAKAHA RIDGE*  NOT AVBL
$$

HIZ005>011-262200-
OAHU-

CITY           SKY/WX    TMP DP  RH WIND       PRES   REMARKS
HONOLULU       MOSUNNY   80  60  50 NE14      30.07F
KALAELOA       SUNNY     80  60  50 VRB7      30.09F
KANEOHE MCB    MOSUNNY   79  62  56 NE12      30.10F
WHEELER FIELD  FAIR      74  60  61 N15       30.10F
BELLOWS*         N/A    N/A N/A N/A NE14        N/A
KAHUKU*          N/A    N/A N/A N/A NE7G13      N/A
WHEELER*       NOT AVBL
WAIANAE HARBOR NOT AVBL
DILLINGHAM*      N/A     79  61  53 NE7G15      N/A
KAHUKU TRN*      N/A     70  54  56 NE7G20      N/A
KAWAILOA*        N/A     72  59  64 NE12G18     N/A
KII*             N/A     77  63  61 NE15        N/A
MAKUA RANGE*     N/A     79  59  50 NE15G24     N/A
OAHU FOREST NW   N/A     64  14  14 CALM        N/A
SCHOFIELD BRK*   N/A     59  46  63 CALM        N/A
SCHOFIELD S*   NOT AVBL
WAIANAE VLY*     N/A     79  57  47 S6G26       N/A
KUAOKALA*        N/A     72  59  64 CALM        N/A
HONOULIUULI*   NOT AVBL
MOKUOLOE IS*     N/A    N/A N/A N/A MISG        N/A
PALEHUA*         N/A     86  61  42 CALM        N/A
WAIAWA PHB*    NOT AVBL
$$

HIZ012>013-262200-
MOLOKAI-

CITY           SKY/WX    TMP DP  RH WIND       PRES   REMARKS
MOLOKAI AIRPT  MOSUNNY   75  62  64 NE17G28   30.09F
KALAUPAPA      NOT AVBL
MAKAPULAPAI*     N/A     75  64  69 E13G21      N/A
MOLOKAI 1*       N/A     70  64  83 N5G21       N/A
PUU ALII*        N/A     57  57 100 E2G9        N/A
$$

HIZ016-262200-
KAHOOLAWE-

CITY           SKY/WX    TMP DP  RH WIND       PRES   REMARKS
KAHOOLAWE*       N/A     72 N/A N/A NE18G29     N/A
HAKIOAWA*      NOT AVBL
HONOKANAIA*      N/A     82  64  53 VRB16G30  30.08F
KANELOA*         N/A     75  63  64 NE21G36     N/A
KEALIALALO*    NOT AVBL
LUA MAKIKA*    NOT AVBL
$$

HIZ014>015-262200-
LANAI-

CITY           SKY/WX    TMP DP  RH WIND       PRES   REMARKS
LANAI CITY     FAIR      75  62  64 NE25G35   30.10F
LANAI 1*         N/A     73  66  78 NE24G38     N/A
$$

HIZ017>028-262200-
MAUI-

CITY           SKY/WX    TMP DP  RH WIND       PRES   REMARKS
KAHULUI        PTSUNNY   78  62  57 NE13      30.10F
KAPALUA-W MAUI NOT AVBL
HANA AIRPORT   CLOUDY    75  64  69 W6        30.11F
HANA*            N/A     75 N/A N/A W3          N/A
HALEAKALA SUMM   N/A     59   5  11 NW2G24      N/A
MAALAEA BAY*   NOT AVBL
HALEAKALA*     NOT AVBL
KAUPO GAP*       N/A     72  61  68 S3G9        N/A
KULA 1*          N/A     60  51  72 W5          N/A
$$

HIZ023>026-262200-
BIG ISLAND OF HAWAII COAST AND LOWER SLOPES-

CITY           SKY/WX    TMP DP  RH WIND       PRES   REMARKS
KAILUA KONA    MOSUNNY   81  69  67 W7        30.00F
HILO           CLOUDY    73  67  81 N10       30.08F
HONOKAA*       NOT AVBL
KAWAIHAE MWT*    N/A     82 N/A N/A W7          N/A
KAWAIHAE*        N/A     81 N/A N/A SW3         N/A
SOUTH POINT*     N/A     77 N/A N/A E15G23      N/A
UPOLU AIRPORT*   N/A    N/A N/A N/A NE16G25     N/A
KAMUELA*       MOCLDY    68  63  83 NE14      30.14F HAZE
HAKALAU*         N/A     57  55  94 NE5         N/A
KALOKO-HONOKO*   N/A     84  68  58 W7        29.99F
PALI 2*          N/A     75  61  60 N16G23      N/A
KEALAKOMO*       N/A     82  66  57 NE22G31     N/A
KAUPULEHU*       N/A     84  57  39 NE12G20     N/A
KAPAPALA*        N/A     78  65  63 SW1G7       N/A
LOWER KAHUKU*    N/A     72  64  78 SE3G9       N/A
PUHE CS*       NOT AVBL
PUHO CS*         N/A     82  66  57 SW3         N/A
PTA KEAMUKU*   NOT AVBL
WAIKOLOA*        N/A    N/A N/A N/A E20G30      N/A
$$

HIZ027>028-262200-
BIG ISLAND OF HAWAII INTERIOR AND SUMMMITS-

CITY           SKY/WX    TMP DP  RH WIND       PRES   REMARKS
BRADSHAW FIELD SUNNY     68  39  35 W8        30.36F
MK VISITOR CEN NOT AVBL
MAUNA KEA*       N/A     46   3  17 NW5         N/A
MAUNA LOA*       N/A     54 -17   5 MISG        N/A
MAUNA LOA 1*   NOT AVBL
PTA KIPUKA*      N/A     70  48  46 NW6G12      N/A
PTA RANGE 17*    N/A    N/A N/A N/A W6G13       N/A
PTA WEST*        N/A     70  54  56 NW8         N/A
NENE CABIN*      N/A    N/A N/A N/A SE5         N/A
AHUMOA*          N/A     62  56  82 N9          N/A
PTA PORTABLE*  NOT AVBL
PUU MALI*      NOT AVBL
$$

HIC003-262200-
NORTHWEST ISLANDS-

CITY           SKY/WX    TMP DP  RH WIND       PRES   REMARKS
MIDWAY ISLAND  SUNNY     75  64  69 S18       30.17F
MIDWAY NOS*    NOT AVBL
FRENCH FRIGATE NOT AVBL
$$

PHZ110>124-180-262200-
BUOY REPORTS

STATION/POSITION TIME  TEMP    WIND        PRES    WAVE   SWELL
                       AIR SEA DIR/SP/G            HT/PER HT/DIR
                 (UTC) (F)     (DEG/KT/KT) (MB)    (FT/S) (FT/D)
BUOY 51001       NOT AVBL
BUOY 51101       2100   72 77   50/ 14/ 17 1022.3F   9/12   8/350
BUOY 51100       2100   72 77   30/ 14/ 17 1019.9F
BUOY 51003       2100   78 80   40/ 17/ 21 1017.3F   8/11   5
BUOY 51004       2021   79 80   60/ 16/ 17 1014.8F  10/11   8/340
BARBERS PT BUOY  NOT AVBL
WAIMEA BAY BUOY  2100      79                N/A     9/13   7/350
KAILUA BAY BUOY  2100      79                N/A     8/13   5/ 10
LANAI BUOY       2100      79                N/A     3/13   2/310
BARBERS PT 2     2100      78                N/A     4/13   3/300
PAUWELA MAUI     2100      79                N/A    10/11   8
HILO             2100      79                N/A     9/13   5/350
KANEOHE BAY BUOY 2100      78                N/A     8/11   5/ 10
HANALEI KAUAI    NOT AVBL
KAHULUI HARBOR   2100   74 78   50/ 10/ 16 1019.0F
HONOLULU HARBOR  2100   77      60/ 11/ 20 1018.4F
KILO NALU        NOT AVBL
HILO HARBOR      2100   72      10/ 12/ 16 1017.9F
MOKUOLOE         2100      76              1019.4F
NAWILIWILI       2100      80                N/A
WHOTS BUOY       NOT AVBL
BUOY 51028       NOT AVBL
$$

......................KEY........................................
  SKY/WX - SKY CONDITIONS/PRESENT WEATHER
  TMP    - TEMPERATURE IN FAHRENHEIT
  DWPT   - DEWPOINT IN FAHRENHEIT
  RH     - RELATIVE HUMIDITY IN PERCENT
  WIND   - DIRECTION AND SPEED /MPH FOR ISLANDS...KTS FOR BUOYS/
  PRES   - MEAN SEA LEVEL PRESSURE IN INCHES OF HG
  VSB    - VISIBILITY IN MILES
  HX     - HEAT INDEX
  WCI    - WIND CHILL INDEX
  VRB    - VARIABLE WIND DIRECTION
  N/A    - NOT AVAILABLE


USA.gov is the U.S. government's official web portal to all federal, state and local government web resources and services.